Overview Statistics Trail Chart Weather Telemetry Raw packets
 

This is the latest recevied weather packets stored in our database for station/object OK1FET-4. If no packets are shown the sender has not sent any weather packets the latest 10 day(s).

<< 4 5 6 7 8 9 10 >>
Time Temp. Humidity Pressure Rain* Wind** Luminosity Snow
1788622438 23.89° C 41% 1019.8 hPa - - - -
1788622112 23.89° C 40% 1019.8 hPa - - - -
1788621810 23.33° C 42% 1019.7 hPa - - - -
1788621509 23.33° C 41% 1019.7 hPa - - - -
1788621208 23.33° C 41% 1019.7 hPa - - - -
1788620907 22.78° C 42% 1019.6 hPa - - - -
1788620606 22.22° C 42% 1019.6 hPa - - - -
1788620305 22.22° C 43% 1019.8 hPa - - - -
1788620004 22.78° C 43% 1019.7 hPa - - - -
1788619703 22.22° C 44% 1019.5 hPa - - - -
1788619402 22.78° C 43% 1019.6 hPa - - - -
1788619100 24.44° C 41% 1019.6 hPa - - - -
1788618799 23.89° C 42% 1019.6 hPa - - - -
1788618498 23.89° C 41% 1019.7 hPa - - - -
1788618197 24.44° C 40% 1019.5 hPa - - - -
1788617896 23.89° C 41% 1019.6 hPa - - - -
1788617594 23.89° C 41% 1019.6 hPa - - - -
1788617298 23.33° C 42% 1019.6 hPa - - - -
1788616992 22.78° C 43% 1019.7 hPa - - - -
1788616691 22.22° C 43% 1019.7 hPa - - - -
1788616390 22.78° C 42% 1019.8 hPa - - - -
1788616089 23.33° C 41% 1019.6 hPa - - - -
1788615788 23.33° C 41% 1019.7 hPa - - - -
1788615487 23.33° C 42% 1019.8 hPa - - - -
1788615186 23.33° C 41% 1019.6 hPa - - - -

* Rain since midnight (hover to see other rain measurements)
** Current wind speed in m/s (hover to see current wind gust speed)